Flag for Cuba Weather past 2 weeks in Santiago de Cuba, Cuba

Now
82 °F

Passing clouds.


Feels Like: 87 °F
Forecast: N/A
Wind: 8 mph from Southwest

Location: Santiago De Cuba - Oriente


UV Index: N/A

Visibility: 6 mi


Pressure: 29.92 "Hg

Humidity: 70%

Dew point: 72 °F

Location of Santiago de CubaLocation

Historic Weather in Santiago de Cuba

°F

Santiago de Cuba temperature yesterday

Maximum temperature yesterday: 84 °F (at 10:50 AM)
Minimum temperature yesterday: 73 °F (at 2:53 AM)
Average temperature yesterday: 79 °F

Past Weeks' High & Low Weather Summary

 TemperatureHumidityPressure
High91 °F (Apr 10, 1:52 PM)94% (Apr 14, 12:51 AM)30.09 "Hg (Apr 14, 12:51 AM)
Low70 °F (Apr 14, 6:51 AM)46% (Apr 10, 1:52 PM)29.86 "Hg (Apr 15, 4:50 PM)
Average79 °F73%29.98 "Hg
* Reported Apr 8 2:50 PM — Apr 23 2:52 PM, Santiago de Cuba, Weather by CustomWeather, © 2014

Note: Actual official high and low records may vary slightly from our data, if they occured in-between our weather recording intervals... More about our weather records

Advertising

Historic Weather Conditions — Data for Previous 24 hours

 ConditionsComfort  
Time TempWeatherWind HumidityBarometerVisibility
2:52 PM
Apr 23
84 °FScattered clouds.9 mph66%29.92 "Hg6 mi
1:51 PM82 °FScattered clouds.7 mph70%29.95 "Hg6 mi
12:52 PM82 °FScattered clouds.6 mph66%29.95 "Hg6 mi
11:52 AM82 °FScattered clouds.5 mph74%29.98 "Hg6 mi
10:52 AM75 °FScattered showers. Broken clouds.5 mph94%N/A4 mi
9:52 AM73 °FLight rain. Broken clouds.6 mph94%29.98 "Hg3 mi
8:50 AM73 °FRain. Broken clouds.7 mph94%29.98 "Hg2 mi
7:50 AM75 °FScattered showers. Scattered clouds.5 mph89%N/A5 mi
6:50 AM73 °FScattered showers. Passing clouds.5 mph89%29.92 "Hg5 mi
5:53 AM73 °FPassing clouds.6 mph89%29.92 "Hg5 mi
4:52 AM73 °FPassing clouds.5 mph94%29.89 "Hg5 mi
3:52 AM73 °FPassing clouds.5 mph94%29.89 "Hg5 mi
2:52 AM75 °FScattered showers. Passing clouds.6 mph89%N/A4 mi
1:52 AM75 °FScattered showers. Passing clouds.6 mph89%29.92 "Hg4 mi
12:55 AM77 °FPassing clouds.1 mph83%29.92 "Hg6 mi
11:51 PM
Apr 22
77 °FPassing clouds.3 mph83%29.92 "Hg6 mi
10:50 PM81 °FPassing clouds.6 mph74%29.92 "Hg6 mi
9:58 PM81 °FPassing clouds.6 mph74%29.92 "Hg6 mi
8:51 PM81 °FPassing clouds.6 mph74%29.89 "Hg6 mi
7:53 PM81 °FPassing clouds.6 mph74%29.89 "Hg6 mi
6:51 PM82 °FPassing clouds.8 mph66%29.86 "Hg6 mi
5:50 PM82 °FScattered clouds.10 mph70%29.86 "HgN/A
4:51 PM84 °FPassing clouds.10 mph66%29.86 "HgN/A
Weather by CustomWeather, © 2014

See weather overview